This is the latest recevied weather packets stored in our database for station/object F4GSP-4. If no packets are shown the sender has not sent any weather packets the latest 10 day(s).
| Time | Temp. | Humidity | Pressure | Rain* | Wind** | Luminosity | Snow |
|---|---|---|---|---|---|---|---|
| 1778254726 | 13.89° C | 46% | 1024.9 hPa | - | - | - | - |
| 1778253826 | 13.89° C | 46% | 1024.6 hPa | - | - | - | - |
| 1778252926 | 14.44° C | 45% | 1024.4 hPa | - | - | - | - |
| 1778252025 | 16.11° C | 45% | 1024.4 hPa | - | - | - | - |
| 1778251125 | 18.33° C | 45% | 1024.2 hPa | - | - | - | - |
| 1778250225 | 21.11° C | 45% | 1024.1 hPa | - | - | - | - |
| 1778249325 | 23.33° C | 47% | 1024.1 hPa | - | - | - | - |
| 1778248425 | 22.22° C | 46% | 1024.1 hPa | - | - | - | - |
| 1778247525 | 20.56° C | 45% | 1024.2 hPa | - | - | - | - |
| 1778246624 | 22.22° C | 47% | 1024.1 hPa | - | - | - | - |
| 1778245724 | 22.22° C | 46% | 1024.1 hPa | - | - | - | - |
| 1778244824 | 23.33° C | 46% | 1024 hPa | - | - | - | - |
| 1778243924 | 23.89° C | 46% | 1024.2 hPa | - | - | - | - |
| 1778243024 | 21.11° C | 47% | 1024.3 hPa | - | - | - | - |
| 1778242124 | 23.89° C | 47% | 1024.3 hPa | - | - | - | - |
| 1778241223 | 22.22° C | 49% | 1024.3 hPa | - | - | - | - |
| 1778240323 | 22.22° C | 49% | 1024.3 hPa | - | - | - | - |
| 1778239423 | 22.78° C | 49% | 1024.4 hPa | - | - | - | - |
| 1778238523 | 23.33° C | 50% | 1024.4 hPa | - | - | - | - |
| 1778237623 | 22.78° C | 51% | 1024.5 hPa | - | - | - | - |
| 1778236723 | 21.11° C | 51% | 1024.7 hPa | - | - | - | - |
| 1778235822 | 20° C | 51% | 1024.8 hPa | - | - | - | - |
| 1778234922 | 19.44° C | 51% | 1025 hPa | - | - | - | - |
| 1778234022 | 20° C | 52% | 1025 hPa | - | - | - | - |
| 1778233122 | 19.44° C | 53% | 1025 hPa | - | - | - | - |
* Rain since midnight (hover to see other rain measurements)
** Current wind speed in m/s (hover to see current wind gust speed)